Starlink 32950

operational
NORAD ID: 63566 Int'l Des: 2025-075 Owner: SPXS Country: US Constellation: starlink
LEOCIRCULAR

Über Starlink 32950

Beschreibung wird geladen...

Live-Position

3D-Globus wird geladen...

Nächste Überflüge

Höhenverlauf

Altitude vs Time

uPlot chart will show altitude changes over time

Zweizeiliger Elementsatz

1 63566U 25075U 25350.79783165 .00020425 00000-0 74943-3 0 9999
2 63566 42.9937 18.4015 0002275 68.1601 291.9492 15.27591085 39257
Epoch: 16. Dez. 2025 • Age: 12 hours

Aktueller Status

Höhe 497.0 km
Geschwindigkeit 7.62 km/s
Subsatellitenpunkt -41.09°S, 69.27°E
Startdatum 13. Apr. 2025
Alter 0.6 years
Typ internet

Technische Details

Klassifizierung Payload
Masse 730.00 kg
Trockenmasse 700.00 kg
Gesamtmasse 730.00 kg
Länge 0.30 m
Durchmesser 4.10 m
Spannweite 29.00 m
Form Box + pan
Hersteller SPXS
Bus-Typ Starlink V2M
Phasenstatus In Orbit
Besitzer/Staat SPXS/US

Große Konstellationen

Loading constellations...